Time,TemperatureF,DewpointF,PressureIn,WindDirection,WindDirectionDegrees,WindSpeedMPH,WindSpeedGustMPH,Humidity,HourlyPrecipIn,Conditions,Clouds,dailyrainin,SoftwareType,DateUTC
2014-09-18 00:00:00,57.9,57.1,29.92,SSW,204,0.0,0.0,97,0.00,,,0.00,Wunderground v.1.15,2014-09-18 04:00:00,
2014-09-18 00:10:00,57.5,56.7,29.92,SSW,204,0.0,0.0,97,0.00,,,0.00,Wunderground v.1.15,2014-09-18 04:10:00,
2014-09-18 00:15:00,57.4,56.6,29.92,SSW,204,0.0,0.0,97,0.00,,,0.00,Wunderground v.1.15,2014-09-18 04:15:00,
2014-09-18 00:20:00,57.5,56.7,29.92,SSW,205,0.0,0.0,97,0.00,,,0.00,Wunderground v.1.15,2014-09-18 04:20:00,
2014-09-18 00:25:00,57.5,56.7,29.92,SSW,204,0.0,0.0,97,0.00,,,0.00,Wunderground v.1.15,2014-09-18 04:25:00,
2014-09-18 00:30:00,57.2,56.4,29.92,SSW,204,0.0,0.0,97,0.00,,,0.00,Wunderground v.1.15,2014-09-18 04:30:00,
2014-09-18 00:35:00,57.4,56.6,29.92,SSW,204,0.0,0.0,97,0.00,,,0.00,Wunderground v.1.15,2014-09-18 04:35:00,
2014-09-18 00:40:00,57.3,56.5,29.92,SSW,204,0.0,0.0,97,0.00,,,0.00,Wunderground v.1.15,2014-09-18 04:40:00,
2014-09-18 00:45:00,57.2,56.4,29.92,SSW,204,0.0,0.0,97,0.00,,,0.00,Wunderground v.1.15,2014-09-18 04:45:00,
2014-09-18 00:50:00,57.0,56.2,29.92,SSW,204,0.0,0.0,97,0.00,,,0.00,Wunderground v.1.15,2014-09-18 04:50:00,
2014-09-18 00:55:00,56.8,55.7,29.92,SSW,204,0.0,0.0,96,0.00,,,0.00,Wunderground v.1.15,2014-09-18 04:55:00,
2014-09-18 01:05:00,56.6,55.8,29.91,SSW,204,0.0,0.0,97,0.00,,,0.00,Wunderground v.1.15,2014-09-18 05:05:00,
2014-09-18 01:15:00,56.4,55.6,29.91,SSW,204,0.0,0.0,97,0.00,,,0.00,Wunderground v.1.15,2014-09-18 05:15:00,
2014-09-18 01:25:00,56.2,55.4,29.91,SSW,204,0.0,0.0,97,0.00,,,0.00,Wunderground v.1.15,2014-09-18 05:25:00,
2014-09-18 01:30:00,56.1,55.3,29.91,SSW,204,0.0,0.0,97,0.00,,,0.00,Wunderground v.1.15,2014-09-18 05:30:00,
2014-09-18 01:35:00,56.1,55.3,29.92,SSW,204,0.0,0.0,97,0.00,,,0.00,Wunderground v.1.15,2014-09-18 05:35:00,
2014-09-18 01:40:00,56.2,55.4,29.92,SSW,204,0.0,0.0,97,0.00,,,0.00,Wunderground v.1.15,2014-09-18 05:40:00,
2014-09-18 01:45:00,56.8,56.2,29.92,SE,144,0.0,0.0,98,0.00,,,0.00,Wunderground v.1.15,2014-09-18 05:45:00,
2014-09-18 01:50:00,57.3,56.7,29.91,SE,143,0.0,0.0,98,0.00,,,0.00,Wunderground v.1.15,2014-09-18 05:50:00,
2014-09-18 02:00:00,57.7,57.1,29.91,SE,138,0.0,0.0,98,0.00,,,0.00,Wunderground v.1.15,2014-09-18 06:00:00,
2014-09-18 02:10:00,58.3,57.7,29.90,SE,137,1.0,1.0,98,0.00,,,0.00,Wunderground v.1.15,2014-09-18 06:10:00,
2014-09-18 02:20:00,58.5,57.9,29.90,SE,132,1.0,1.0,98,0.00,,,0.00,Wunderground v.1.15,2014-09-18 06:20:00,
2014-09-18 02:30:00,58.4,57.8,29.91,SSE,155,1.0,1.0,98,0.00,,,0.00,Wunderground v.1.15,2014-09-18 06:30:00,
2014-09-18 02:35:00,58.5,57.9,29.91,SSE,155,0.0,1.0,98,0.00,,,0.00,Wunderground v.1.15,2014-09-18 06:35:00,
2014-09-18 02:40:00,58.4,57.8,29.91,SSE,154,0.0,0.0,98,0.00,,,0.00,Wunderground v.1.15,2014-09-18 06:40:00,
2014-09-18 02:45:00,58.3,57.7,29.90,SSE,152,0.0,0.0,98,0.00,,,0.00,Wunderground v.1.15,2014-09-18 06:45:00,
2014-09-18 02:50:00,58.2,57.6,29.90,SSE,155,0.0,0.0,98,0.00,,,0.00,Wunderground v.1.15,2014-09-18 06:50:00,
2014-09-18 02:55:00,58.1,57.5,29.91,SSE,155,0.0,0.0,98,0.00,,,0.00,Wunderground v.1.15,2014-09-18 06:55:00,
2014-09-18 03:00:00,58.1,57.5,29.91,SSE,155,0.0,0.0,98,0.00,,,0.00,Wunderground v.1.15,2014-09-18 07:00:00,
2014-09-18 03:05:00,57.9,57.3,29.91,SSE,155,0.0,0.0,98,0.00,,,0.00,Wunderground v.1.15,2014-09-18 07:05:00,
2014-09-18 03:10:00,57.8,57.2,29.91,SSE,155,0.0,0.0,98,0.00,,,0.00,Wunderground v.1.15,2014-09-18 07:10:00,
2014-09-18 03:15:00,57.6,57.0,29.91,SSE,155,0.0,0.0,98,0.00,,,0.00,Wunderground v.1.15,2014-09-18 07:15:00,
2014-09-18 03:20:00,57.5,56.9,29.91,SSE,155,0.0,0.0,98,0.00,,,0.00,Wunderground v.1.15,2014-09-18 07:20:00,
2014-09-18 03:30:00,57.4,56.8,29.91,SSE,155,0.0,0.0,98,0.00,,,0.00,Wunderground v.1.15,2014-09-18 07:30:00,
2014-09-18 03:35:00,57.5,56.9,29.91,SSE,155,0.0,0.0,98,0.00,,,0.00,Wunderground v.1.15,2014-09-18 07:35:00,
2014-09-18 03:45:00,57.8,57.2,29.91,SSE,155,0.0,0.0,98,0.00,,,0.00,Wunderground v.1.15,2014-09-18 07:45:00,
2014-09-18 03:50:00,57.9,57.3,29.91,SSE,155,0.0,0.0,98,0.00,,,0.00,Wunderground v.1.15,2014-09-18 07:50:00,
2014-09-18 03:55:00,58.0,57.4,29.91,SSE,155,0.0,0.0,98,0.00,,,0.00,Wunderground v.1.15,2014-09-18 07:55:00,
2014-09-18 04:00:00,58.2,57.6,29.91,SSE,155,0.0,0.0,98,0.00,,,0.00,Wunderground v.1.15,2014-09-18 08:00:00,
2014-09-18 04:05:00,58.2,57.6,29.91,SSE,155,0.0,0.0,98,0.00,,,0.00,Wunderground v.1.15,2014-09-18 08:05:00,
2014-09-18 04:10:00,58.2,57.6,29.91,SSE,155,0.0,0.0,98,0.00,,,0.00,Wunderground v.1.15,2014-09-18 08:10:00,
2014-09-18 04:15:00,58.2,57.6,29.90,SSE,155,0.0,0.0,98,0.00,,,0.00,Wunderground v.1.15,2014-09-18 08:15:00,
2014-09-18 04:25:00,58.4,57.8,29.90,SSE,155,0.0,0.0,98,0.00,,,0.00,Wunderground v.1.15,2014-09-18 08:25:00,
2014-09-18 04:30:00,58.4,57.8,29.90,SSE,155,0.0,0.0,98,0.00,,,0.00,Wunderground v.1.15,2014-09-18 08:30:00,
2014-09-18 04:35:00,58.5,57.9,29.90,SSE,155,0.0,0.0,98,0.00,,,0.00,Wunderground v.1.15,2014-09-18 08:35:00,
2014-09-18 04:40:00,58.5,57.9,29.89,SSE,155,0.0,0.0,98,0.00,,,0.00,Wunderground v.1.15,2014-09-18 08:40:00,